MyTimes logo

TIMES

Webb Imagery

28/01/2006
Cowes Classic
500m Swim / 4.0km Run

(Click on competitor name to view personalised results)

Name
Race #
Category
Team Name
Time
(h:mm:ss)
Avg Speed
km/hr
OAll
Place
Cat
Place
NOBLE Gavin#106Senior Male0:22:03 12.2 11
BRUCE Sean#125Senior Male0:22:29 12 22
ROBERTSON Marcus#746Team Mixed0:22:29 12 31
CAMPBELL Brad#111Senior Male0:23:16 11.6 43
LEEWORTHY CARL#35Senior Male0:23:32 11.5 54
DUNCAN Nick#91Senior Male0:23:58 11.3 65
KEECH Dion#714Team Mixed0:23:58 11.3 72
MAGASANIK Michael#744Team Mixed0:24:08 11.2 83
JOUSTRA Chris#28240-49 Male0:24:13 11.1 91
VELLIN Marc#46Senior Male0:24:22 11.1 106
EVANS Brad#68Senior Male0:24:33 11 117
SMITH Ryan#218Junior Male0:24:35 11 121
ROWE Mark#128Senior Male0:24:38 11 138
TREMAYNE Travis#748Team Male0:24:44 10.9 141
WILSON Ed#738Team Male0:24:48 10.9 152
MOXON Blair#745Team Male0:24:57 10.8 163
BLYTHE KATHY#707Team Mixed0:24:57 10.8 174
MOATE Peter#741Team Male0:25:10 10.7 184
ROWELL David#95Senior Male0:25:18 10.7 199
UHLICH Rhys#733Team Male0:25:27 10.6 205
SIMPSON Mark#98Senior Male0:25:35 10.6 2110
WILLIAMS Jared#271Junior Male0:25:35 10.6 222
PHILLIPS Tyler#264Junior Male0:25:44 10.5 233
GRAHAME Sarah#169Senior Female0:25:46 10.5 241
HENDRISE DEAN#37Senior Male0:25:51 10.4 2511
FLEISNER Rob#26340-49 Male0:25:51 10.4 262
PLANT Luke#724Team Male0:25:56 10.4 276
SEALE Josh#718Team Male0:25:59 10.4 287
MC HENRY David#730Team Male0:26:07 10.3 298
GEORGE Mark#29440-49 Male0:26:09 10.3 303
HANLEY Philip#28150+ Male0:26:16 10.3 311
ROLLAND Thierry#26840-49 Male0:26:18 10.3 324
CROFT Greg#25840-49 Male0:26:22 10.2 335
GLADWELL Paul#22740-49 Male0:26:23 10.2 346
HANLEY Tim#134Senior Male0:26:40 10.1 3512
RAINEY Peter#22540-49 Male0:26:44 10.1 367
PONTON Lincoln#747Team Male0:26:49 10.1 379
YUSKO Bill#25150+ Male0:26:50 10.1 382
AITKEN Harry#216Junior Male0:26:59 10 394
MC CARTNEY Andrew#757Team Male0:27:09 9.9 4010
POLIZZI Alexander#248Junior Male0:27:10 9.9 415
MAYERS Stuart#104Senior Male0:27:11 9.9 4213
GOWAN Michael#716Team Mixed0:27:15 9.9 435
POWELL Jeff#74Senior Male0:27:21 9.9 4414
CORBETT James#28440-49 Male0:27:26 9.8 458
HUMPHREY Nicholas#50Senior Male0:27:28 9.8 4615
HUTCHISON Warwick#126Senior Male0:27:28 9.8 4716
BUSKES John#26240-49 Male0:27:30 9.8 489
OBERHOFER Helen#21Senior Female0:27:31 9.8 492
KERR Lewis#274Junior Male0:27:35 9.8 506
HEWETT Noel#27640-49 Male0:27:40 9.8 5110
WILKINS Darren#133Senior Male0:27:46 9.7 5217
LEWIS Robert#732Team Mixed0:27:46 9.7 536
MANGIONI Chris#101Senior Male0:27:51 9.7 5418
WILKINS Shaun#122Senior Male0:27:59 9.6 5519
BUTT CHLOE#210Junior Female0:27:59 9.6 561
OSBORNE Craig#72Senior Male0:28:06 9.6 5720
CARIAS Joe#736Team Male0:28:06 9.6 5811
STUBBS Gavin#726Team Male0:28:06 9.6 5912
CAPLE Alex#82Senior Male0:28:10 9.6 6021
MC DONALD NICK#34Senior Male0:28:25 9.5 6122
FETTERPLACE Jonathon#83Senior Male0:28:29 9.5 6223
PAPWORTH Troy#49Senior Male0:28:29 9.5 6324
SIMPSON David#273Junior Male0:28:29 9.5 647
FERGUSON Andrew#119Senior Male0:28:34 9.5 6525
MEADE Simon#722Team Mixed0:28:34 9.5 667
CLIFFORD Simon#132Senior Male0:28:35 9.4 6726
HOZLAND Freya#739Team Mixed0:28:35 9.4 688
BURGESS Aaron#110Senior Male0:28:40 9.4 6927
STEWART Alastair#278Junior Male0:28:42 9.4 708
HARDINGHAM Leigh#69Senior Male0:28:45 9.4 7128
JEMMETT CHRISTIANN#20140-49 Female0:28:45 9.4 721
ZERVAAS Stephanie#242Junior Female0:28:48 9.4 732
BEISLER Rebecca#86Senior Female0:28:52 9.4 743
CROWE Jessica#703Team Female0:28:52 9.4 751
KINGSLEY Caitlin#214Junior Female0:28:54 9.3 763
MC CARTNEY Danielle#754Team Female0:28:57 9.3 772
HENDERSON Chloe#750Team Mixed0:29:05 9.3 789
ALDERSON Allan#27250+ Male0:29:07 9.3 793
HARVEY Aimee#97Senior Female0:29:14 9.2 804
MARSHALL Luke#108Senior Male0:29:15 9.2 8129
HALL DANNI#709Team Mixed0:29:19 9.2 8210
SMITH Katie#713Team Mixed0:29:22 9.2 8311
PATRICK GRAEME#22040-49 Male0:29:25 9.2 8411
SCHAAP Ysbrand#79Senior Male0:29:27 9.2 8530
FITZGERALD Kieran#75Senior Male0:29:31 9.1 8631
WILKINSON Emily#107Senior Female0:29:32 9.1 875
HALL Kerri#740Team Mixed0:29:35 9.1 8812
BLUEMENTHAL David#93Senior Male0:29:36 9.1 8932
RIVES John#26740-49 Male0:29:37 9.1 9012
ALLEN Mark#22840-49 Male0:29:39 9.1 9113
BYRNE Stephen#28840-49 Male0:29:41 9.1 9214
HOUSTON Moon#735Team Mixed0:29:49 9.1 9313
MARTIN Brian#27540-49 Male0:29:49 9.1 9415
MC NEIL Murray#727Team Mixed0:30:03 9 9514
JONES Cam#90Senior Male0:30:09 9 9633
JALONDO-ON Rio#135Senior Male0:30:09 9 9734
REID CRAIG ANDR#33Senior Male0:30:10 9 9835
FERGUSON Zoe#118Senior Female0:30:12 8.9 996
SIMONDS Carolyn#749Team Female0:30:19 8.9 1003
LEECH ANGELA#17Senior Female0:30:26 8.9 1017
WALKER Anna#729Team Mixed0:30:27 8.9 10215
MUNDAY Paul#25240-49 Male0:30:27 8.9 10316
O'BRIEN Jenny#20340-49 Female0:30:31 8.8 1042
MARTIN Patrick#96Senior Male0:30:32 8.8 10536
PALMER Daniel#113Senior Male0:30:33 8.8 10637
STEABBEN Warrick#129Senior Male0:30:37 8.8 10738
VAN DER TANG Stephen#54Senior Male0:30:44 8.8 10839
COX Bill#728Team Male0:30:44 8.8 10913
NEVINS Sue#28640-49 Female0:30:46 8.8 1103
STINEAR Tim#84Senior Male0:30:57 8.7 11140
MOORE Cameron#293Junior Male0:30:59 8.7 1129
KURAMOTO BUZBY#32Senior Male0:31:05 8.7 11341
HUNT GREG#22140-49 Male0:31:05 8.7 11417
MOSSE Pete#751Team Male0:31:06 8.7 11514
MATTHEWS Bob#25350+ Male0:31:11 8.7 1164
FETTERPLACE David#23350+ Male0:31:12 8.7 1175
SMITH Michael#103Senior Male0:31:14 8.6 11842
RIELLY Debbie#116Senior Female0:31:22 8.6 1198
EVANS Bree#88Senior Female0:31:27 8.6 1209
WILSON KATIE#208Junior Female0:31:28 8.6 1214
VITIRITTI Karina#92Senior Female0:31:30 8.6 12210
THOMPSON David#62Senior Male0:31:32 8.6 12343
ABLETT Zachary#77Senior Male0:31:38 8.5 12444
WHITE Ben#78Senior Male0:31:39 8.5 12545
MORRISON Mark#24340-49 Male0:31:39 8.5 12618
O'DONOHUE Mark#737Team Mixed0:31:43 8.5 12716
REAY Andrew#94Senior Male0:31:48 8.5 12846
AITKEN Daisy And#711Team Mixed0:31:49 8.5 12917
MULLER Dale#48Senior Male0:31:51 8.5 13047
O'KEEFE Louise#112Senior Female0:31:53 8.5 13111
KNIGHT Vicki#706Team Female0:31:54 8.5 1324
WHELLER Laurie#27050+ Male0:31:54 8.5 1336
MARTIN Robert#26040-49 Male0:31:56 8.5 13419
PRYOR Brendan#85Senior Male0:31:57 8.5 13548
PETRUCCI Gina#61Senior Female0:31:58 8.4 13612
WATT Rohan#743Team Mixed0:32:00 8.4 13718
MILLS Daniel#719Senior Male0:32:02 8.4 13849
THOMSON Adrian#752Team Male0:32:03 8.4 13915
CHISHOLM Andy#120Senior Male0:32:08 8.4 14050
BURNS Greg#24540-49 Male0:32:09 8.4 14120
SKIPMORE Matt#247Junior Male0:32:28 8.3 14210
WALKER Paul#117Senior Male0:32:41 8.3 14351
SPEAKMAN David#758Team Mixed0:32:41 8.3 14419
MILLS Luke#756Team Mixed0:32:42 8.3 14520
RYLE Michael#28540-49 Male0:32:42 8.3 14621
MANNING Simon#24940-49 Male0:32:44 8.2 14722
JOHNSTON Brian#742Team Mixed0:33:01 8.2 14821
MEAD PAUL#708Team Mixed0:33:19 8.1 14922
KELLY David#123Senior Male0:33:20 8.1 15052
FITZGERALD Ben#130Senior Male0:33:32 8.1 15153
DENEHY Jess#25750+ Female0:33:33 8 1521
DAVIE Jasmine#254Junior Female0:33:33 8 1535
DAVIE Angela#25540-49 Female0:33:34 8 1544
MANNING John#127Senior Male0:33:35 8 15554
MC LEAN Andrew#65Senior Male0:33:39 8 15655
MAHER Nicholas#71Senior Male0:33:39 8 15756
SPENCER Alyn#25Senior Female0:33:41 8 15813
MEADE Stephen#723Team Male0:33:41 8 15916
BARRITT Desmond#22640-49 Male0:33:43 8 16023
MOSSE Kim#99Senior Female0:33:44 8 16114
BLUNDELL Adam#89Senior Male0:33:47 8 16257
TIPPING Joel#58Senior Male0:33:48 8 16358
WEIR Warren#755Team Mixed0:33:54 8 16423
ROMANIS Susan#27Senior Female0:33:55 8 16515
PARKER Mick#87Senior Male0:34:02 7.9 16659
DEANS IAN#23250+ Male0:34:13 7.9 1677
CARTER DEAN#23150+ Male0:34:18 7.9 1688
WRIGHT Brad#131Senior Male0:34:20 7.9 16960
NOLAN Simon#115Senior Male0:34:25 7.8 17061
CAPLE David#25650+ Male0:34:25 7.8 1719
BARKER Daniel#52Senior Male0:34:31 7.8 17262
O'SULLIVAN JANINE#13Senior Female0:34:32 7.8 17316
LYFORD Mark#28950+ Male0:34:33 7.8 17410
GRANT Samantha#102Senior Female0:34:34 7.8 17517
PANTARELLI Nicole#100Senior Female0:34:53 7.7 17618
FINNEGAN Johns#24640-49 Male0:35:03 7.7 17724
WRIGHT Bruce#26140-49 Male0:35:06 7.7 17825
HENDRY George#28350+ Male0:35:09 7.7 17911
JESTER Peitra#66Senior Female0:35:15 7.7 18019
COMMERFORD BIANCA#16Senior Female0:35:19 7.6 18120
O'SHEA Kelly#136Senior Female0:35:27 7.6 18221
VANDERSTEEN Bevan#73Senior Male0:35:28 7.6 18363
RIGHTON Simon#22940-49 Male0:35:29 7.6 18426
ANDERSON David#710Team Mixed0:35:33 7.6 18524
ROBINSON Keleigh Ja#26Senior Female0:35:36 7.6 18622
DEVINE Allison#29140-49 Female0:35:38 7.6 1875
BANKS Trevor#109Senior Male0:35:43 7.6 18864
EVANS Kym#67Senior Female0:35:49 7.5 18923
BOULTER Bruce#24140-49 Male0:35:59 7.5 19027
ROGERS SAM#38Senior Male0:36:00 7.5 19165
ROBERTSON Debbie#20540-49 Female0:36:05 7.5 1926
MUELLER Tanja#64Senior Female0:36:07 7.5 19324
STINEAR Melinda#721Team Female0:36:09 7.5 1945
HARPER Karen#12Senior Female0:36:14 7.5 19525
MORGAN Sally#731Team Mixed0:36:18 7.4 19625
MALONE Janelle#753Team Female0:36:29 7.4 1976
BRAY Gillian#124Senior Female0:36:42 7.4 19826
GOOEY Megan#114Senior Female0:36:59 7.3 19927
GIBBS Brad#43Senior Male0:37:02 7.3 20066
MILLER Lisa Jane#29540-49 Female0:37:11 7.3 2017
MARKOPOLOUS GEORGE#36Senior Male0:37:17 7.2 20267
HOLLAND Arthur#23850+ Male0:37:26 7.2 20312
PLATT X#76Senior Male0:37:27 7.2 20468
JACOBS Suzie#701Team Female0:37:28 7.2 2057
TAMBURG Alysia#121Senior Female0:37:30 7.2 20628
GORSUCH Scott#734Team Male0:37:31 7.2 20717
WILSON Chris#25040-49 Male0:37:36 7.2 20828
THOMPSON Libby#63Senior Female0:37:39 7.2 20929
MONAHAN Brigid#30Senior Female0:38:11 7.1 21030
DALLINGER Brian#26550+ Male0:38:15 7.1 21113
NEVINS Bridgette#287Junior Female0:38:16 7.1 2126
STEWART Scott#28050+ Male0:38:17 7.1 21314
O'SULLIVAN Travis#57Senior Male0:38:44 7 21469
MCKAY Leah#29Senior Female0:38:51 6.9 21531
ROBINSON Murray#24440-49 Male0:38:52 6.9 21629
KENT Chloe#277Junior Female0:39:00 6.9 2177
ZIMMERMAN Kirrily#28Senior Female0:39:15 6.9 21832
GOOEY Janette#29250+ Female0:40:33 6.7 2192
CAMILLE Dauen#279Junior Male0:41:57 6.4 22011
WOOLOCK Kath#70Senior Female0:42:15 6.4 22133
HARTMAN Jenelle#80Senior Female0:42:50 6.3 22234
SPARK Robyn#81Senior Female0:42:51 6.3 22335
REEK George#26650+ Male0:43:11 6.3 22415
BEWLEY RIKKI#20650+ Female0:48:39 5.5 2253
MITCHELL-COOK Wanda#25950+ Female0:53:18 5.1 2264
KONTOGOURIS EARLENE#20750+ Female0:56:57 4.7 2275